Time,TemperatureF,DewpointF,PressureIn,WindDirection,WindDirectionDegrees,WindSpeedMPH,WindSpeedGustMPH,Humidity,HourlyPrecipIn,Conditions,Clouds,dailyrainin,SoftwareType,DateUTC
2013-02-27 00:00:00,72.2,58.9,30.08,ENE,68,8.0,25.0,63,0.00,,---,0.00,VWS V14.01,2013-02-27 10:00:00,
2013-02-27 00:30:00,71.9,58.6,30.06,ENE,68,12.0,34.0,63,0.00,,---,0.00,VWS V14.01,2013-02-27 10:30:00,
2013-02-27 01:00:00,72.0,58.7,30.08,ENE,68,12.0,31.0,63,0.00,,---,0.00,VWS V14.01,2013-02-27 11:00:00,
2013-02-27 01:30:00,71.1,58.8,30.06,ENE,68,7.0,25.0,65,0.00,,---,0.00,VWS V14.01,2013-02-27 11:30:00,
2013-02-27 02:00:00,71.3,56.7,30.05,ENE,68,11.0,25.0,60,0.00,,---,0.00,VWS V14.01,2013-02-27 12:00:00,
2013-02-27 02:30:00,71.5,58.3,30.05,ENE,68,10.0,28.0,63,0.00,,---,0.00,VWS V14.01,2013-02-27 12:30:00,
2013-02-27 03:00:00,71.3,57.2,30.03,ENE,68,10.0,26.0,61,0.00,,---,0.00,VWS V14.01,2013-02-27 13:00:00,
2013-02-27 03:30:00,71.4,57.7,30.03,ENE,68,11.0,27.0,62,0.00,,---,0.00,VWS V14.01,2013-02-27 13:30:00,
2013-02-27 04:00:00,71.2,57.5,30.04,ENE,68,12.0,25.0,62,0.00,,---,0.00,VWS V14.01,2013-02-27 14:00:00,
2013-02-27 04:30:00,71.0,57.8,30.05,ENE,68,11.0,30.0,63,0.00,,---,0.00,VWS V14.01,2013-02-27 14:30:00,
2013-02-27 05:00:00,71.3,56.7,30.05,ENE,68,11.0,29.0,60,0.00,,---,0.00,VWS V14.01,2013-02-27 15:00:00,
2013-02-27 05:30:00,71.0,56.9,30.07,ENE,68,9.0,28.0,61,0.00,,---,0.00,VWS V14.01,2013-02-27 15:30:00,
2013-02-27 06:00:00,71.4,56.8,30.07,ENE,68,10.0,31.0,60,0.00,,---,0.00,VWS V14.01,2013-02-27 16:00:00,
2013-02-27 06:30:00,71.7,58.0,30.08,East,90,10.0,25.0,62,0.00,,---,0.00,VWS V14.01,2013-02-27 16:30:00,
2013-02-27 07:00:00,73.4,57.3,30.08,ENE,68,11.0,27.0,57,0.00,,---,0.00,VWS V14.01,2013-02-27 17:00:00,
2013-02-27 07:30:00,75.1,56.8,30.09,ENE,68,10.0,26.0,53,0.00,,---,0.00,VWS V14.01,2013-02-27 17:30:00,
2013-02-27 08:00:00,77.0,56.4,30.10,ENE,68,11.0,30.0,49,0.00,,---,0.00,VWS V14.01,2013-02-27 18:00:00,
2013-02-27 08:30:00,80.0,56.2,30.10,ENE,68,10.0,23.0,44,0.00,,---,0.00,VWS V14.01,2013-02-27 18:30:00,
2013-02-27 09:00:00,79.6,57.0,30.10,ENE,68,11.0,29.0,46,0.00,,---,0.00,VWS V14.01,2013-02-27 19:00:00,
2013-02-27 09:30:00,81.8,57.1,30.09,ENE,68,11.0,28.0,43,0.00,,---,0.00,VWS V14.01,2013-02-27 19:30:00,
2013-02-27 10:00:00,83.8,57.6,30.09,ENE,68,10.0,24.0,41,0.00,,---,0.00,VWS V14.01,2013-02-27 20:00:00,
2013-02-27 10:30:00,85.3,56.8,30.08,ENE,68,10.0,27.0,38,0.00,,---,0.00,VWS V14.01,2013-02-27 20:30:00,
2013-02-27 11:00:00,85.7,58.6,30.08,NE,45,10.0,23.0,40,0.00,,---,0.00,VWS V14.01,2013-02-27 21:00:00,
2013-02-27 11:30:00,85.0,58.0,30.07,NE,45,11.0,28.0,40,0.00,,---,0.00,VWS V14.01,2013-02-27 21:30:00,
2013-02-27 12:00:00,84.9,60.6,30.05,NE,45,12.0,27.0,44,0.00,,---,0.00,VWS V14.01,2013-02-27 22:00:00,
2013-02-27 12:30:00,84.5,58.9,30.04,NE,45,11.0,28.0,42,0.00,,---,0.00,VWS V14.01,2013-02-27 22:30:00,
2013-02-27 13:00:00,84.5,59.6,30.03,NE,45,10.0,27.0,43,0.00,,---,0.00,VWS V14.01,2013-02-27 23:00:00,
2013-02-27 13:30:00,84.5,60.2,30.02,ENE,68,12.0,34.0,44,0.00,,---,0.00,VWS V14.01,2013-02-27 23:30:00,
2013-02-27 14:00:00,81.2,59.1,30.02,ENE,68,12.0,31.0,47,0.00,,---,0.00,VWS V14.01,2013-02-28 00:00:00,
2013-02-27 14:30:00,80.6,59.1,30.01,ENE,68,13.0,35.0,48,0.00,,---,0.00,VWS V14.01,2013-02-28 00:30:00,
2013-02-27 15:00:00,79.3,59.1,30.01,ENE,68,12.0,36.0,50,0.00,,---,0.00,VWS V14.01,2013-02-28 01:00:00,
2013-02-27 15:30:00,77.9,59.4,30.01,ENE,68,12.0,32.0,53,0.00,,---,0.00,VWS V14.01,2013-02-28 01:30:00,
2013-02-27 16:00:00,77.0,58.6,30.03,ENE,68,12.0,26.0,53,0.00,,---,0.00,VWS V14.01,2013-02-28 02:00:00,
2013-02-27 16:30:00,75.6,58.3,30.04,ENE,68,13.0,34.0,55,0.00,,---,0.00,VWS V14.01,2013-02-28 02:30:00,
2013-02-27 17:00:00,75.0,57.8,30.04,ENE,68,11.0,26.0,55,0.00,,---,0.00,VWS V14.01,2013-02-28 03:00:00,
2013-02-27 17:30:00,74.0,57.8,30.04,ENE,68,10.0,28.0,57,0.00,,---,0.00,VWS V14.01,2013-02-28 03:30:00,
2013-02-27 18:00:00,73.5,57.8,30.05,ENE,68,12.0,26.0,58,0.00,,---,0.00,VWS V14.01,2013-02-28 04:00:00,
2013-02-27 18:30:00,73.4,57.3,30.06,ENE,68,8.0,23.0,57,0.00,,---,0.00,VWS V14.01,2013-02-28 04:30:00,
2013-02-27 19:00:00,73.2,57.5,30.08,ENE,68,8.0,24.0,58,0.00,,---,0.00,VWS V14.01,2013-02-28 05:00:00,
2013-02-27 19:30:00,72.7,57.6,30.09,ENE,68,7.0,19.0,59,0.00,,---,0.00,VWS V14.01,2013-02-28 05:30:00,
2013-02-27 20:00:00,72.3,57.7,30.09,ENE,68,8.0,19.0,60,0.00,,---,0.00,VWS V14.01,2013-02-28 06:00:00,
2013-02-27 20:30:00,72.5,57.8,30.09,ENE,68,8.0,22.0,60,0.00,,---,0.00,VWS V14.01,2013-02-28 06:30:00,
2013-02-27 21:00:00,72.6,57.0,30.10,ENE,68,8.0,23.0,58,0.00,,---,0.00,VWS V14.01,2013-02-28 07:00:00,
2013-02-27 21:30:00,72.6,57.5,30.10,ENE,68,9.0,23.0,59,0.00,,---,0.00,VWS V14.01,2013-02-28 07:30:00,
2013-02-27 22:00:00,71.9,57.3,30.10,ENE,68,10.0,24.0,60,0.00,,---,0.00,VWS V14.01,2013-02-28 08:00:00,
2013-02-27 22:30:00,71.9,57.3,30.09,ENE,68,9.0,24.0,60,0.00,,---,0.00,VWS V14.01,2013-02-28 08:30:00,
2013-02-27 23:00:00,71.7,57.1,30.09,ENE,68,9.0,23.0,60,0.00,,---,0.00,VWS V14.01,2013-02-28 09:00:00,
2013-02-27 23:30:00,71.3,56.7,30.08,ENE,68,8.0,21.0,60,0.00,,---,0.00,VWS V14.01,2013-02-28 09:30:00,